CDT,Max TemperatureF,Mean TemperatureF,Min TemperatureF,Max Dew PointF,MeanDew PointF,Min DewpointF,Max Humidity, Mean Humidity, Min Humidity, Max Sea Level PressureIn, Mean Sea Level PressureIn, Min Sea Level PressureIn, Max VisibilityMiles, Mean VisibilityMiles, Min VisibilityMiles, Max Wind SpeedMPH, Mean Wind SpeedMPH, Max Gust SpeedMPH,PrecipitationIn, CloudCover, Events, WindDirDegrees
2013-3-1,30,28,26,24,21,19,80,74,64,30.33,30.24,30.16,10,9,5,14,10,16,0.00,8,Snow,331
2013-3-2,33,28,23,19,16,14,75,63,48,30.39,30.32,30.24,10,10,10,13,8,,0.00,4,,327
2013-3-3,41,33,25,26,21,17,72,61,49,30.21,30.00,29.79,10,10,10,13,7,17,0.00,2,,145
2013-3-4,46,40,34,32,28,25,87,66,51,29.96,29.78,29.69,10,10,7,13,10,,0.00,1,,68
2013-3-5,35,32,28,32,22,16,93,67,54,30.36,30.15,29.94,10,8,2,25,16,36,0.03,7,Snow,313
2013-3-6,37,30,23,20,18,16,75,65,50,30.46,30.39,30.33,10,10,10,15,9,20,0.00,2,,38
2013-3-7,44,32,21,28,23,16,81,66,51,30.35,30.27,30.18,10,10,10,13,8,,0.00,0,,101
2013-3-8,50,42,33,37,32,26,75,64,54,30.25,30.16,30.00,10,10,9,15,9,21,0.00,3,Rain,123
2013-3-9,59,52,44,54,46,37,100,87,59,30.01,29.73,29.60,10,4,1,16,9,26,1.05,8,Rain-Thunderstorm,113
2013-3-10,55,42,28,54,41,23,97,91,81,29.90,29.68,29.55,10,7,1,20,9,30,0.31,7,Rain,264
2013-3-11,36,31,26,23,21,18,81,70,48,30.04,29.94,29.86,10,10,5,16,11,23,0.00,5,Snow,279
2013-3-12,46,38,30,26,21,19,69,56,39,30.35,30.19,30.04,10,10,10,23,8,30,0.00,2,,296
2013-3-13,45,35,25,23,19,17,75,55,33,30.50,30.42,30.35,10,10,10,10,7,,0.00,1,,325
2013-3-14,71,53,35,37,30,21,61,44,28,30.33,30.15,30.06,10,10,10,22,10,31,0.00,0,,229
2013-3-15,80,62,45,46,41,35,71,48,27,30.07,29.83,29.65,10,10,10,18,7,25,0.00,0,,215
2013-3-16,62,49,37,43,33,27,83,67,52,30.09,29.96,29.69,10,9,5,25,14,29,0.00,5,,18
2013-3-17,36,34,32,32,28,25,92,83,67,30.07,29.95,29.78,10,8,2,17,14,24,0.16,8,Rain-Snow,68
2013-3-18,53,43,33,36,30,18,100,72,30,30.07,29.86,29.74,10,7,2,24,8,32,0.00,5,,315
2013-3-19,39,34,30,34,25,12,93,71,35,30.27,30.21,30.09,10,9,4,10,4,,0.00,6,Snow,250
2013-3-20,37,31,25,34,13,3,93,49,25,30.42,30.29,30.16,10,9,4,21,11,28,0.00,1,,325
2013-3-21,30,26,24,25,18,8,86,71,47,30.14,30.02,29.93,10,7,0,15,7,,0.03,7,Snow,93
2013-3-22,34,31,28,28,27,25,87,83,75,30.04,29.99,29.94,10,8,2,10,8,,0.00,8,Snow,62
2013-3-23,39,36,32,31,29,25,92,82,57,30.05,29.94,29.85,10,4,0,20,11,26,0.19,8,Fog-Snow,42
2013-3-24,34,29,25,31,26,16,100,86,69,30.09,29.90,29.78,10,3,0,25,18,32,0.06,8,Fog-Snow-Thunderstorm,343
2013-3-25,32,26,21,27,22,15,93,79,66,30.35,30.18,30.05,10,6,1,18,12,26,0.00,7,Snow,306
2013-3-26,36,27,19,20,19,18,92,68,50,30.43,30.37,30.34,10,10,10,9,5,,0.00,1,,253
2013-3-27,48,37,26,31,25,19,78,64,46,30.35,30.29,30.22,10,10,10,14,7,,0.00,4,,111
2013-3-28,63,50,37,40,35,30,76,57,38,30.25,30.20,30.14,10,10,10,9,6,,0.00,3,,79
2013-3-29,66,54,41,42,37,35,82,57,32,30.23,30.17,30.11,10,10,6,13,8,,0.00,1,,85
2013-3-30,64,56,50,54,48,37,96,81,61,30.10,29.95,29.87,10,8,0,13,7,23,0.02,5,Fog,137
2013-3-31,66,55,46,49,40,26,100,67,28,29.99,29.95,29.92,10,6,0,20,6,25,0.00,2,Fog,316